This is the latest recevied weather packets stored in our database for station/object JH0KSP-13. If no packets are shown the sender has not sent any weather packets the latest 10 day(s).
| Time | Temp. | Humidity | Pressure | Rain* | Wind** | Luminosity | Snow |
|---|---|---|---|---|---|---|---|
| 1777889408 | 12.78° C | 64% | 1007.1 hPa | 0 mm | - | - | - |
| 1777889217 | 12.78° C | 63% | 1007 hPa | 0 mm | - | - | - |
| 1777888016 | 12.78° C | 63% | 1006.8 hPa | 0 mm | - | - | - |
| 1777886816 | 12.78° C | 61% | 1006.9 hPa | 0 mm | - | - | - |
| 1777886410 | 12.78° C | 62% | 1006.8 hPa | 0 mm | - | - | - |
| 1777885809 | 12.78° C | 61% | 1006.9 hPa | 0 mm | - | - | - |
| 1777885616 | 12.78° C | 62% | 1006.9 hPa | 0 mm | - | - | - |
| 1777885209 | 12.78° C | 62% | 1007.1 hPa | 0 mm | - | - | - |
| 1777884609 | 12.78° C | 63% | 1007 hPa | 0 mm | - | - | - |
| 1777884416 | 12.78° C | 62% | 1006.9 hPa | 0 mm | - | - | - |
| 1777883215 | 13.89° C | 62% | 1007 hPa | 0 mm | - | - | - |
| 1777882809 | 13.89° C | 62% | 1006.7 hPa | 0 mm | - | - | - |
| 1777882016 | 13.89° C | 61% | 1006.3 hPa | 0 mm | - | - | - |
| 1777880817 | 15° C | 61% | 1005.7 hPa | 0 mm | - | - | - |
| 1777879617 | 15° C | 58% | 1005.2 hPa | 0 mm | - | - | - |
| 1777878609 | 16.11° C | 57% | 1005 hPa | 0 mm | - | - | - |
| 1777878415 | 16.11° C | 58% | 1004.9 hPa | 0 mm | - | - | - |
| 1777877216 | 16.11° C | 58% | 1004.8 hPa | 0 mm | - | - | - |
| 1777876016 | 17.22° C | 60% | 1004.7 hPa | 0 mm | - | - | - |
| 1777875610 | 17.22° C | 59% | 1004.6 hPa | 0 mm | - | - | - |
| 1777875009 | 17.22° C | 59% | 1004.5 hPa | 0 mm | - | - | - |
| 1777874817 | 17.22° C | 59% | 1004.5 hPa | 0 mm | - | - | - |
| 1777873616 | 17.22° C | 59% | 1004 hPa | 0 mm | - | - | - |
| 1777873209 | 17.22° C | 59% | 1003.8 hPa | 0 mm | - | - | - |
| 1777872416 | 17.78° C | 57% | 1003.5 hPa | 0 mm | - | - | - |
* Rain latest hour (hover to see other rain measurements)
** Current wind speed in m/s (hover to see current wind gust speed)